Location: Sungai Ketit
(2.6833°N, 113.2333°E)
Time: 21:11:52
(UTC+00:00)

ATLAS 5 CENTAUR R/B - Pass Details

Date: 23 May 2024
Orbit: 418 x 1168 km, 63.3° (Epoch: 19 June)

Event Time Altitude Azimuth Distance (km) Brightness Sun altitude
Rises 11:11:57 0° 11° (N) 3,544 5.6 -10.2°
Reaches altitude 10° 11:15:30 10° 32° (NNE) 2,745 4.8 -11.1°
Maximum altitude 11:19:19 16° 68° (ENE) 2,456 4.2 -12.0°
Enters shadow 11:21:46 14° 91° (E) 2,682 4.2 -12.5°
